Weather History for KBED - November, 2013

Change the Weather History Date:

Wednesday, November 27, 2013

  Actual Average Record
Temperature  
Mean Temperature 49 °F -  
Max Temperature 62 °F 46 °F 66 °F (1976)
Min Temperature 36 °F 28 °F 11 °F (1957)
Degree Days  
Heating Degree Days 16    
Moisture  
Dew Point 55 °F    
Average Humidity 99    
Maximum Humidity 100    
Minimum Humidity 93    
Precipitation  
Precipitation 1.63 in - - ()
Sea Level Pressure  
Sea Level Pressure 29.43 in    
Wind  
Wind Speed 11 mph (South)    
Max Wind Speed 26 mph    
Max Gust Speed 38 mph    
Visibility 4 miles    
Events Rain    
Averages and records for this station are not official NWS values.
T = Trace of Precipitation, MM = Missing Value Source: NWS Daily Summary

Daily Weather History Graph

Daily Weather History Graph

Search for Another Location

Airport or City:

Trip Planner

Search our weather history database for the weather conditions in past years. The results will help you decide how hot, cold, wet, or windy it might be!

Date:

Astronomy

Nov. 27, 2013 Rise Set
Actual Time 6:50 AM EST 4:14 PM EST
Civil Twilight 6:19 AM EST 4:45 PM EST
Nautical Twilight 5:44 AM EST 5:20 PM EST
Astronomical Twilight 5:11 AM EST 5:54 PM EST
Moon 12:43 AM EST (11/27) 12:56 PM EST (11/27)
Length of Visible Light 10h 26m
Length of Day
9h 23m
Waning Crescent, 32% of the Moon is Illuminated
Nov 27
Waning Crescent
Dec 2
New
Dec 9
First Quarter
Dec 17
Full
Dec 25
Last Quarter

Hourly Weather History & Observations

Time (EST) Temp. Windchill Dew Point Humidity Pressure Visibility Wind Dir Wind Speed Gust Speed Precip Events Conditions
12:56 AM 36.0 °F - 36.0 °F 100% 30.03 in 1.5 mi Calm Calm - 0.09 in Rain Rain
1:56 AM 37.0 °F - 37.0 °F 100% 29.95 in 1.2 mi Calm Calm - 0.17 in Rain Light Rain
2:03 AM 39.2 °F - 39.2 °F 100% 29.90 in 1.2 mi Calm Calm - 0.00 in Rain Light Rain
2:11 AM 42.8 °F 37.0 °F 42.8 °F 100% 29.89 in 3.0 mi ESE 10.4 mph 17.3 mph 0.01 in Rain Light Rain
2:47 AM 46.4 °F 41.1 °F 46.4 °F 100% 29.84 in 2.0 mi East 11.5 mph - 0.04 in Rain Light Rain
2:56 AM 46.9 °F - 46.9 °F 100% 29.87 in 1.8 mi East 11.5 mph 21.9 mph 0.06 in Rain Rain
3:06 AM 46.4 °F 40.7 °F 46.4 °F 100% 29.81 in 2.5 mi East 12.7 mph - 0.02 in Rain Light Rain
3:24 AM 48.2 °F - 46.4 °F 93% 29.78 in 3.0 mi ESE 13.8 mph - 0.04 in Rain Light Rain
3:42 AM 48.2 °F - 48.2 °F 100% 29.76 in 2.0 mi ESE 12.7 mph - 0.06 in Rain Light Rain
3:56 AM 48.9 °F - 48.0 °F 97% 29.79 in 3.0 mi ESE 10.4 mph - 0.09 in Rain Rain
4:49 AM 50.0 °F - 50.0 °F 100% 29.66 in 2.5 mi ESE 15.0 mph 21.9 mph 0.07 in Rain Rain
4:56 AM 51.1 °F - 50.0 °F 96% 29.70 in 2.5 mi ESE 13.8 mph 23.0 mph 0.08 in Rain Rain
5:33 AM 51.8 °F - 51.8 °F 100% 29.60 in 1.5 mi ESE 12.7 mph 23.0 mph 0.16 in Rain Heavy Rain
5:56 AM 51.1 °F - 51.1 °F 100% 29.59 in 1.8 mi ESE 13.8 mph - 0.24 in Rain Rain
6:08 AM 51.8 °F - 51.8 °F 100% 29.53 in 2.0 mi ESE 13.8 mph 21.9 mph 0.01 in Rain Light Rain
6:56 AM 55.9 °F - 55.9 °F 100% 29.51 in 2.0 mi SSE 17.3 mph 27.6 mph 0.08 in Rain Light Rain
7:03 AM 55.4 °F - 55.4 °F 100% 29.47 in 2.0 mi SSE 21.9 mph 32.2 mph 0.01 in Rain Light Rain
7:51 AM 60.8 °F - 59.0 °F 94% 29.42 in 1.8 mi South 18.4 mph 29.9 mph 0.08 in Rain Light Rain
7:56 AM 60.1 °F - 60.1 °F 100% 29.46 in 2.5 mi SSE 19.6 mph 29.9 mph 0.08 in Rain Light Rain
8:00 AM 60.8 °F - 60.8 °F 100% 29.41 in 3.0 mi South 19.6 mph 34.5 mph 0.00 in Rain Light Rain
8:05 AM 60.8 °F - 60.8 °F 100% 29.41 in 2.5 mi South 21.9 mph 34.5 mph 0.01 in Rain Rain
8:38 AM 60.8 °F - 60.8 °F 100% 29.40 in 1.8 mi South 19.6 mph 38.0 mph 0.11 in Rain Rain
8:48 AM 60.8 °F - 60.8 °F 100% 29.40 in 0.8 mi SSE 23.0 mph 33.4 mph 0.19 in Rain Heavy Rain
8:56 AM 60.1 °F - 60.1 °F 100% 29.42 in 0.8 mi SSE 18.4 mph 31.1 mph 0.23 in Rain Light Rain
9:02 AM 60.8 °F - 60.8 °F 100% 29.37 in 2.0 mi South 19.6 mph 27.6 mph 0.00 in Rain Light Rain
9:10 AM 60.8 °F - 60.8 °F 100% 29.38 in 2.0 mi South 19.6 mph 35.7 mph 0.01 in Rain Light Rain
9:19 AM 60.8 °F - 60.8 °F 100% 29.37 in 3.0 mi South 19.6 mph 34.5 mph 0.01 in Rain Light Rain
9:29 AM 60.8 °F - 60.8 °F 100% 29.36 in 7.0 mi South 21.9 mph 33.4 mph 0.01 in Rain Light Rain
9:45 AM 62.6 °F - 60.8 °F 94% 29.35 in 2.5 mi South 17.3 mph 36.8 mph 0.01 in Rain Light Rain
9:51 AM 62.6 °F - 60.8 °F 94% 29.35 in 4.0 mi South 19.6 mph 35.7 mph 0.01 in Rain Light Rain
9:56 AM 62.1 °F - 61.0 °F 96% 29.39 in 7.0 mi South 26.5 mph 38.0 mph 0.01 in Rain Light Rain
10:05 AM 62.6 °F - 62.6 °F 100% 29.35 in 10.0 mi South 24.2 mph 36.8 mph 0.00 in   Overcast
10:56 AM 62.1 °F - 62.1 °F 100% 29.35 in 4.0 mi South 16.1 mph 26.5 mph 0.00 in Rain Light Rain
11:42 AM 60.8 °F - 60.8 °F 100% 29.30 in 2.5 mi South 10.4 mph - 0.03 in Rain Light Rain
11:51 AM 60.8 °F - 60.8 °F 100% 29.30 in 3.0 mi South 15.0 mph 20.7 mph 0.04 in Rain Light Rain
11:56 AM 61.0 °F - 61.0 °F 100% 29.34 in 3.0 mi South 12.7 mph 20.7 mph 0.05 in Rain Rain
12:27 PM 60.8 °F - 60.8 °F 100% 29.29 in 2.0 mi SSE 10.4 mph - 0.15 in Rain Rain
12:56 PM 61.0 °F - 61.0 °F 100% 29.31 in 2.5 mi SSE 11.5 mph - 0.21 in Rain Light Rain
1:30 PM 60.8 °F - 60.8 °F 100% 29.24 in 2.5 mi SSE 9.2 mph - 0.04 in Rain Light Rain
1:37 PM 60.8 °F - 60.8 °F 100% 29.22 in 4.0 mi SSE 6.9 mph - 0.04 in Rain Light Rain
1:56 PM 61.0 °F - 61.0 °F 100% 29.25 in 5.0 mi SSE 5.8 mph - 0.05 in Rain Light Rain
2:03 PM 60.8 °F - 60.8 °F 100% 29.22 in 7.0 mi South 5.8 mph - 0.01 in Rain Light Rain
2:26 PM 60.8 °F - 60.8 °F 100% 29.20 in 10.0 mi South 3.5 mph - 0.01 in   Overcast
2:33 PM 60.8 °F - 60.8 °F 100% 29.20 in 5.0 mi SSW 4.6 mph - 0.01 in   Overcast
2:56 PM 61.0 °F - 60.1 °F 97% 29.27 in 5.0 mi WSW 5.8 mph - 0.02 in Rain Light Rain
3:00 PM 59.0 °F - 59.0 °F 100% 29.24 in 1.0 mi WNW 18.4 mph 21.9 mph 0.01 in Rain Light Rain
3:33 PM 53.6 °F - - N/A% 29.24 in 3.0 mi West 8.1 mph 17.3 mph 0.03 in Rain Light Rain
3:56 PM 52.0 °F - - N/A% 29.29 in 3.0 mi West 5.8 mph - 0.03 in   Overcast
4:56 PM 50.0 °F - 50.0 °F 100% 29.29 in 8.0 mi WNW 3.5 mph - 0.01 in Rain Light Rain
5:27 PM 48.2 °F - - N/A% 29.24 in 9.0 mi WNW 6.9 mph - 0.01 in Rain Light Rain
5:35 PM 48.2 °F - - N/A% 29.24 in 7.0 mi WNW 6.9 mph - 0.01 in Rain Light Rain
5:56 PM 46.9 °F - - N/A% 29.27 in 5.0 mi NW 5.8 mph - 0.03 in Rain Rain
6:03 PM 46.4 °F 41.9 °F - N/A% 29.25 in 5.0 mi West 9.2 mph - 0.00 in Rain Light Rain
6:56 PM 45.0 °F 40.6 °F - N/A% 29.26 in 6.0 mi NW 8.1 mph - 0.06 in Rain Light Rain
7:03 PM 44.6 °F 40.2 °F - N/A% 29.25 in 7.0 mi WNW 8.1 mph - 0.01 in Rain Light Rain
7:22 PM 44.6 °F 38.8 °F - N/A% 29.26 in 10.0 mi WNW 11.5 mph - 0.01 in Rain Light Rain
7:36 PM 42.8 °F 34.5 °F - N/A% 29.27 in 10.0 mi WNW 18.4 mph 24.2 mph 0.02 in Rain Light Rain
7:56 PM 42.1 °F 33.9 °F - N/A% 29.31 in 9.0 mi WNW 17.3 mph 25.3 mph 0.02 in Rain Light Rain
8:09 PM 42.8 °F 34.3 °F - N/A% 29.30 in 10.0 mi WNW 19.6 mph 25.3 mph 0.00 in Rain Light Rain
8:56 PM 39.9 °F 31.4 °F - N/A% 29.37 in 8.0 mi WNW 16.1 mph 24.2 mph 0.02 in Rain Light Rain
9:56 PM 39.0 °F 30.3 °F - N/A% 29.39 in 10.0 mi WNW 16.1 mph 24.2 mph 0.00 in   Overcast
10:56 PM 37.9 °F 30.0 °F 37.9 °F 100% 29.43 in 10.0 mi West 12.7 mph 17.3 mph N/A   Overcast
11:56 PM 36.0 °F 29.0 °F 36.0 °F 100% 29.49 in 10.0 mi West 9.2 mph 19.6 mph N/A   Overcast